Regional Weather Roundup
Issued by NWS Northern Indiana

Home | Current Version | Previous Version | Text Only | Print | Product List | Glossary On
Versions: 1 2 3 4 5 6 7 8 9 10 11 12 13 14 15 16 17 18 19 20 21 22 23 24 25 26 27 28 29 30 31 32 33 34 35 36 37 38 39 40 41 42 43 44 45 46 47 48 49 50
000
ASUS43 KIWX 251811
RWRIWX

KIWX WEATHER ROUNDUP
NATIONAL WEATHER SERVICE NORTHERN INDIANA
200 PM EDT MON SEP 25 2017

NOTE: "FAIR" INDICATES FEW OR NO CLOUDS BELOW 12,000 FEET WITH NO
SIGNIFICANT WEATHER AND/OR OBSTRUCTIONS TO VISIBILITY.

* THESE STATIONS ARE NOT UNDER NWS QUALITY CONTROL. THEY ALSO MAY NOT
  REPORT WEATHER SUCH AS PRECIPITATION OR FOG.

INZ001>027-251900-
NORTHERN INDIANA

CITY           SKY/WX    TMP DP  RH WIND       PRES   REMARKS
GARY*          PTSUNNY   90  46  22 SE7       30.00F
VALPARAISO     MOSUNNY   88  60  38 SE6       30.02F
6HR MIN TEMP:  60; 6HR MAX TEMP:  90;

MICHIGAN CITY* MOSUNNY   86  59  39 S3        30.02F
LAPORTE*       MOSUNNY   86  56  35 SE7       30.03S
6HR MIN TEMP:  58; 6HR MAX TEMP:  87;

KNOX*          MOSUNNY   86  55  35 E6        30.02S
SOUTH BEND     MOSUNNY   86  54  33 VRB3      30.03F
6HR MIN TEMP:  62; 6HR MAX TEMP:  86; 6HR PCP: TRACE;

ELKHART*       MOSUNNY   86  55  35 CALM      30.03F
GOSHEN         MOSUNNY   86  51  29 CALM      30.03F
6HR MIN TEMP:  57; 6HR MAX TEMP:  87;

MONTICELLO*    SUNNY     87  54  31 CALM      30.01F
6HR MIN TEMP:  59; 6HR MAX TEMP:  87;

LOGANSPORT*    SUNNY     88  54  31 SE5       30.03F
WARSAW*        SUNNY     84  55  37 CALM      30.04F
AUBURN*        MOSUNNY   88  52  29 CALM      30.05F
FORT WAYNE     PTSUNNY   87  56  34 W5        30.04F
6HR MIN TEMP:  60; 6HR MAX TEMP:  88;

HUNTINGTON*    SUNNY     87  54  32 CALM      30.03F
6HR MIN TEMP:  58; 6HR MAX TEMP:  87;

PERU/GRISSOM   SUNNY     87  57  36 CALM      30.02F
6HR MIN TEMP:  61; 6HR MAX TEMP:  87;


$$
INZ028>050-251900-
CENTRAL INDIANA

CITY           SKY/WX    TMP DP  RH WIND       PRES   REMARKS
KOKOMO*        SUNNY     87  57  35 SW3       30.03F
6HR MIN TEMP:  58; 6HR MAX TEMP:  88;

MUNCIE*        SUNNY     88  55  32 E5        30.03F
6HR MIN TEMP:  59; 6HR MAX TEMP:  89;

INDIANAPOLIS   MOSUNNY   88  58  36 CALM      30.02F
6HR MIN TEMP:  67; 6HR MAX TEMP:  88;


$$
MIZ043>046-050>051-056>058-064>065-071>073-077>080-251900-
SOUTHWEST LOWER MICHIGAN

CITY           SKY/WX    TMP DP  RH WIND       PRES   REMARKS
BATTLE CREEK   CLOUDY    88  54  31 VRB3      30.05F
6HR MIN TEMP:  64; 6HR MAX TEMP:  89; 6HR PCP: TRACE;

BENTON HARBOR  PTSUNNY   87  60  40 CALM      30.02F
6HR MIN TEMP:  63; 6HR MAX TEMP:  87;

COLDWATER*     SUNNY     87  52  29 S5        30.04F
6HR MIN TEMP:  62; 6HR MAX TEMP:  88;

HILLSDALE*     MOSUNNY   88  55  33 S6        30.05F
HOLLAND        MOSUNNY   89  57  33 CALM      30.02F
6HR MIN TEMP:  63; 6HR MAX TEMP:  89;

GRAND RAPIDS   PTSUNNY   90  54  29 VRB6      30.03F
6HR MIN TEMP:  64; 6HR MAX TEMP:  90;

KALAMAZOO      PTSUNNY   87  52  29 CALM      30.04F
6HR MIN TEMP:  63; 6HR MAX TEMP:  87;

STURGIS*       SUNNY     89  54  30 W6        30.03F
6HR MIN TEMP:  63; 6HR MAX TEMP:  89;

THREE RIVERS*  FAIR      87  52  30 CALM      30.04F
6HR MIN TEMP:  61; 6HR MAX TEMP:  87;


$$
OHZ001>008-015>018-024>025-251900-
NORTHWEST OHIO

CITY           SKY/WX    TMP DP  RH WIND       PRES   REMARKS
WAUSEON*       FAIR      90  59  35 CALM      30.04F
DEFIANCE       SUNNY     88  60  38 VRB5      30.03F
6HR MIN TEMP:  61; 6HR MAX TEMP:  88;

FINDLAY        SUNNY     88  61  40 CALM      30.03F
6HR MIN TEMP:  66; 6HR MAX TEMP:  89;

TOLEDO EXPRESS SUNNY     90  64  42 W5        30.03F
6HR MIN TEMP:  65; 6HR MAX TEMP:  90;

TOLEDO METCALF MOSUNNY   89  63  41 VRB3      30.03F
6HR MIN TEMP:  66; 6HR MAX TEMP:  90;

LIMA           MOSUNNY   87  61  41 CALM      30.04F
6HR MIN TEMP:  61; 6HR MAX TEMP:  88;


$$
AND FOR LAKE MICHIGAN COASTAL AND OPEN LAKE BUOY OBSERVATIONS

STATION/POSITION TEMP    WIND        PRES    VSBY  WAVE
                 AIR SEA DIR/SP/G                  HT/PER
                 (F)     (DEG/KT/KT) (MB)    (MI)  (FT/S)
CALUMET HARBOR    82      80/  9/ 12 1015.0F
MICHIGAN CITY     84     140/  5/  7   N/A
BURNS HARBOR      80      10/  5/  6 1016.3F
SAINT JOSEPH      87     230/  1/  2 1017.3
SOUTH LAKE BUOY   72 71  130/ 10/ 12 1015.8F         1/ 3
4 MI NW BRIDGMAN  81 72     CALM     1015.9          0
MICHIGAN CITY     79 74   90/  4/  6   N/A           0

$$
&&




USA.gov is the U.S. government's official web portal to all federal, state and local government web resources and services.